This is the latest recevied weather packets stored in our database for station/object K8RLH. If no packets are shown the sender has not sent any weather packets the latest 10 day(s).
| Time | Temp. | Humidity | Pressure | Rain* | Wind** | Luminosity | Snow |
|---|---|---|---|---|---|---|---|
| 1778084510 | 22.22° C | 67% | 1018 hPa | 0 mm | - | 195 W/m² | - |
| 1778084207 | 22.22° C | 68% | 1017.9 hPa | 0 mm | - | 198 W/m² | - |
| 1778083904 | 22.22° C | 68% | 1017.8 hPa | 0 mm | - | 224 W/m² | - |
| 1778083602 | 22.22° C | 68% | 1017.7 hPa | 0 mm | - | 255 W/m² | - |
| 1778083300 | 22.22° C | 68% | 1017.9 hPa | 0 mm | - | 228 W/m² | - |
| 1778082998 | 21.67° C | 69% | 1017.9 hPa | 0 mm | - | 197 W/m² | - |
| 1778082694 | 21.11° C | 72% | 1017.4 hPa | 0 mm | - | 189 W/m² | - |
| 1778081556 | 21.11° C | 71% | 1017.6 hPa | 0 mm | - | 153 W/m² | - |
| 1778081253 | 21.11° C | 72% | 1017.4 hPa | 0 mm | - | 136 W/m² | - |
| 1778080950 | 20.56° C | 72% | 1017.6 hPa | 0 mm | - | 113 W/m² | - |
| 1778080650 | 20.56° C | 73% | 1017.6 hPa | 0 mm | - | 121 W/m² | - |
| 1778080345 | 20.56° C | 73% | 1017.5 hPa | 0 mm | - | 117 W/m² | - |
| 1778080042 | 20.56° C | 73% | 1017.5 hPa | 0 mm | - | 162 W/m² | - |
| 1778079739 | 20.56° C | 74% | 1017.3 hPa | 0 mm | - | 175 W/m² | - |
| 1778079436 | 20.56° C | 74% | 1017.3 hPa | 0 mm | - | 176 W/m² | - |
| 1778079133 | 20° C | 74% | 1017.2 hPa | 0 mm | - | 147 W/m² | - |
| 1778078830 | 20° C | 74% | 1017.2 hPa | 0 mm | - | 83 W/m² | - |
| 1778078527 | 20° C | 75% | 1017.2 hPa | 0 mm | - | 130 W/m² | - |
| 1778078224 | 20° C | 76% | 1016.9 hPa | 0 mm | - | 133 W/m² | - |
| 1778077922 | 20° C | 76% | 1016.7 hPa | 0 mm | - | 98 W/m² | - |
| 1778077621 | 20° C | 75% | 1016.8 hPa | 0 mm | - | 64 W/m² | - |
| 1778077318 | 20° C | 75% | 1016.7 hPa | 0 mm | - | 56 W/m² | - |
| 1778077015 | 20° C | 75% | 1016.6 hPa | 0 mm | - | 120 W/m² | - |
| 1778076714 | 20° C | 76% | 1016.6 hPa | 0 mm | - | 150 W/m² | - |
| 1778076411 | 19.44° C | 76% | 1016.7 hPa | 0 mm | - | 148 W/m² | - |
* Rain latest hour (hover to see other rain measurements)
** Current wind speed in m/s (hover to see current wind gust speed)